{"data":{"norad_id":65641,"epoch":"2026-09-20T21:29:49.753536Z","epoch_age_seconds":74335,"freshness":"FRESH","line1":"1 65641U 25210V   26263.89571474  .00013109  00000+0  39833-3 0  9998","line2":"2 65641  53.1587 115.7087 0002167  80.1306 279.9941 15.34408110 57680","mean_motion":15.3440811,"eccentricity":0.0002167,"inclination_deg":53.1587,"raan_deg":115.7087,"arg_perigee_deg":80.1306,"mean_anomaly_deg":279.9941,"bstar":0.00039833,"rev_number":5768,"period_min":93.847262055986,"perigee_km":461.19673082757,"apogee_km":464.16154054077,"semimajor_km":6840.8161356842,"source":"CELESTRAK","updated_at":"2026-09-21T09:00:35.676737Z"}}